Location: Unspecified
(0.0000°N, 0.0000°E)
Time: 02:47:18
(UTC+00:00)

Hubble Space Telescope - Pass Details

Date: 26 April 2018
Orbit: 537 x 541 km, 28.5° (Epoch: 17 July)

Event Time Altitude Azimuth Distance (km) Brightness Sun altitude
Exits shadow 03:37:17 15° 94° (E) 1,482 3.6 -34.0°
Drops below altitude 10° 03:38:09 10° 99° (E) 1,785 4.1 -33.8°
Sets 03:40:31 0° 107° (ESE) 2,676 5.1 -33.3°
